Time,TemperatureF,DewpointF,PressureIn,WindDirection,WindDirectionDegrees,WindSpeedMPH,WindSpeedGustMPH,Humidity,HourlyPrecipIn,Conditions,Clouds,dailyrainin,SoftwareType,DateUTC
2013-04-22 00:04:00,36.1,31.5,30.13,WNW,292,2.9,3.6,83,0.00,CLR,CLR,0.00,WeatherDisplay:10.37,2013-04-22 05:04:00,
2013-04-22 00:09:00,36.1,31.5,30.12,West,270,4.7,7.6,83,0.00,CLR,CLR,0.00,WeatherDisplay:10.37,2013-04-22 05:09:00,
2013-04-22 00:14:00,36.0,31.6,30.13,WNW,292,7.6,9.2,84,0.00,CLR,CLR,0.00,WeatherDisplay:10.37,2013-04-22 05:14:00,
2013-04-22 00:20:00,36.0,31.3,30.13,NW,315,10.0,11.5,83,0.00,CLR,CLR,0.00,WeatherDisplay:10.37,2013-04-22 05:20:00,
2013-04-22 00:25:00,36.0,31.3,30.13,NNW,338,5.4,8.5,83,0.00,CLR,CLR,0.00,WeatherDisplay:10.37,2013-04-22 05:25:00,
2013-04-22 00:30:00,36.0,31.3,30.13,West,270,4.4,5.8,83,0.00,CLR,CLR,0.00,WeatherDisplay:10.37,2013-04-22 05:30:00,
2013-04-22 00:35:00,35.8,31.1,30.13,NW,315,5.0,9.2,83,0.00,CLR,CLR,0.00,WeatherDisplay:10.37,2013-04-22 05:35:00,
2013-04-22 00:40:00,35.8,31.1,30.13,WNW,292,7.4,9.2,83,0.00,CLR,CLR,0.00,WeatherDisplay:10.37,2013-04-22 05:40:00,
2013-04-22 00:46:00,35.8,31.1,30.14,NNW,338,3.6,8.1,83,0.00,CLR,CLR,0.00,WeatherDisplay:10.37,2013-04-22 05:46:00,
2013-04-22 00:51:00,35.8,31.1,30.13,WNW,292,5.0,6.9,83,0.00,CLR,CLR,0.00,WeatherDisplay:10.37,2013-04-22 05:51:00,
2013-04-22 00:56:00,35.8,31.1,30.13,WNW,292,4.1,5.8,83,0.00,CLR,CLR,0.00,WeatherDisplay:10.37,2013-04-22 05:56:00,
2013-04-22 01:01:00,35.8,31.1,30.14,NW,315,5.4,8.1,83,0.00,CLR,CLR,0.00,WeatherDisplay:10.37,2013-04-22 06:01:00,
2013-04-22 01:06:00,35.8,31.1,30.14,West,270,2.6,4.6,83,0.00,CLR,CLR,0.00,WeatherDisplay:10.37,2013-04-22 06:06:00,
2013-04-22 01:11:00,35.8,31.1,30.15,WNW,292,4.0,5.8,83,0.00,CLR,CLR,0.00,WeatherDisplay:10.37,2013-04-22 06:11:00,
2013-04-22 01:16:00,35.6,30.9,30.14,NW,315,3.0,3.8,83,0.00,CLR,CLR,0.00,WeatherDisplay:10.37,2013-04-22 06:16:00,
2013-04-22 01:21:00,35.6,30.9,30.14,WNW,292,5.7,5.8,83,0.00,CLR,CLR,0.00,WeatherDisplay:10.37,2013-04-22 06:21:00,
2013-04-22 01:27:00,35.4,30.5,30.15,WNW,292,7.5,11.5,82,0.00,CLR,CLR,0.00,WeatherDisplay:10.37,2013-04-22 06:27:00,
2013-04-22 01:32:00,35.4,30.2,30.15,WNW,292,8.2,10.4,81,0.00,CLR,CLR,0.00,WeatherDisplay:10.37,2013-04-22 06:32:00,
2013-04-22 01:37:00,35.4,29.9,30.15,NW,315,8.8,10.5,80,0.00,CLR,CLR,0.00,WeatherDisplay:10.37,2013-04-22 06:37:00,
2013-04-22 01:42:00,35.4,29.6,30.14,NNW,338,9.1,11.5,79,0.00,CLR,CLR,0.00,WeatherDisplay:10.37,2013-04-22 06:42:00,
2013-04-22 01:47:00,35.4,29.6,30.15,WNW,292,7.9,10.4,79,0.00,CLR,CLR,0.00,WeatherDisplay:10.37,2013-04-22 06:47:00,
2013-04-22 01:52:00,35.4,29.6,30.15,NNW,338,5.3,5.8,79,0.00,CLR,CLR,0.00,WeatherDisplay:10.37,2013-04-22 06:52:00,
2013-04-22 01:57:00,35.4,29.6,30.15,West,270,5.5,6.9,79,0.00,CLR,CLR,0.00,WeatherDisplay:10.37,2013-04-22 06:57:00,
2013-04-22 02:02:00,35.2,29.4,30.15,NW,315,5.6,5.6,79,0.00,CLR,CLR,0.00,WeatherDisplay:10.37,2013-04-22 07:02:00,
2013-04-22 02:07:00,35.2,29.1,30.16,WNW,292,6.8,8.5,78,0.00,CLR,CLR,0.00,WeatherDisplay:10.37,2013-04-22 07:07:00,
2013-04-22 02:13:00,35.2,29.1,30.15,WNW,292,6.9,8.1,78,0.00,CLR,CLR,0.00,WeatherDisplay:10.37,2013-04-22 07:13:00,
2013-04-22 02:18:00,35.2,29.1,30.16,NW,315,4.1,6.0,78,0.00,CLR,CLR,0.00,WeatherDisplay:10.37,2013-04-22 07:18:00,
2013-04-22 02:23:00,34.9,28.7,30.16,WNW,292,2.0,4.6,78,0.00,CLR,CLR,0.00,WeatherDisplay:10.37,2013-04-22 07:23:00,
2013-04-22 02:28:00,34.9,28.7,30.16,NW,315,4.8,5.8,78,0.00,CLR,CLR,0.00,WeatherDisplay:10.37,2013-04-22 07:28:00,
2013-04-22 02:34:00,34.9,28.7,30.16,WNW,292,4.7,6.9,78,0.00,CLR,CLR,0.00,WeatherDisplay:10.37,2013-04-22 07:34:00,
2013-04-22 02:39:00,34.9,28.7,30.16,NW,315,6.5,11.5,78,0.00,CLR,CLR,0.00,WeatherDisplay:10.37,2013-04-22 07:39:00,
2013-04-22 02:44:00,34.7,28.5,30.17,WNW,292,6.1,9.2,78,0.00,CLR,CLR,0.00,WeatherDisplay:10.37,2013-04-22 07:44:00,
2013-04-22 02:49:00,34.9,28.7,30.16,NW,315,5.6,8.1,78,0.00,CLR,CLR,0.00,WeatherDisplay:10.37,2013-04-22 07:49:00,
2013-04-22 02:55:00,34.9,28.7,30.16,NNW,338,4.8,10.4,78,0.00,CLR,CLR,0.00,WeatherDisplay:10.37,2013-04-22 07:55:00,
2013-04-22 03:00:00,34.7,28.5,30.16,NW,315,3.1,4.6,78,0.00,CLR,CLR,0.00,WeatherDisplay:10.37,2013-04-22 08:00:00,
2013-04-22 03:05:00,34.7,28.5,30.16,WNW,292,5.3,5.8,78,0.00,CLR,CLR,0.00,WeatherDisplay:10.37,2013-04-22 08:05:00,
2013-04-22 03:10:00,34.7,28.5,30.16,NW,315,5.8,8.1,78,0.00,CLR,CLR,0.00,WeatherDisplay:10.37,2013-04-22 08:10:00,
2013-04-22 03:15:00,34.7,28.5,30.16,NW,315,4.7,6.9,78,0.00,CLR,CLR,0.00,WeatherDisplay:10.37,2013-04-22 08:15:00,
2013-04-22 03:20:00,34.5,28.4,30.16,NW,315,5.3,7.6,78,0.00,CLR,CLR,0.00,WeatherDisplay:10.37,2013-04-22 08:20:00,
2013-04-22 03:25:00,34.5,28.4,30.16,NW,315,5.7,5.7,78,0.00,CLR,CLR,0.00,WeatherDisplay:10.37,2013-04-22 08:25:00,
2013-04-22 03:31:00,34.3,28.2,30.16,WNW,292,8.3,9.2,78,0.00,CLR,CLR,0.00,WeatherDisplay:10.37,2013-04-22 08:31:00,
2013-04-22 03:36:00,34.3,28.2,30.16,NW,315,5.9,8.1,78,0.00,CLR,CLR,0.00,WeatherDisplay:10.37,2013-04-22 08:36:00,
2013-04-22 03:41:00,34.2,28.0,30.16,NNW,338,4.9,6.9,78,0.00,CLR,CLR,0.00,WeatherDisplay:10.37,2013-04-22 08:41:00,
2013-04-22 03:46:00,34.0,27.8,30.17,WNW,292,6.8,6.9,78,0.00,CLR,CLR,0.00,WeatherDisplay:10.37,2013-04-22 08:46:00,
2013-04-22 03:52:00,33.6,27.5,30.17,WNW,292,5.8,6.9,78,0.00,CLR,CLR,0.00,WeatherDisplay:10.37,2013-04-22 08:52:00,
2013-04-22 03:57:00,33.6,27.5,30.18,WNW,292,2.3,3.5,78,0.00,CLR,CLR,0.00,WeatherDisplay:10.37,2013-04-22 08:57:00,
2013-04-22 04:02:00,33.6,27.5,30.18,West,270,0.0,0.0,78,0.00,CLR,CLR,0.00,WeatherDisplay:10.37,2013-04-22 09:02:00,
2013-04-22 04:07:00,33.4,27.3,30.17,NW,315,2.5,3.5,78,0.00,CLR,CLR,0.00,WeatherDisplay:10.37,2013-04-22 09:07:00,
2013-04-22 04:12:00,33.1,27.0,30.18,West,270,1.4,3.5,78,0.00,CLR,CLR,0.00,WeatherDisplay:10.37,2013-04-22 09:12:00,
2013-04-22 04:17:00,32.7,26.9,30.18,West,270,2.4,2.4,79,0.00,CLR,CLR,0.00,WeatherDisplay:10.37,2013-04-22 09:17:00,
2013-04-22 04:23:00,32.7,26.9,30.19,WNW,292,0.8,2.5,79,0.00,CLR,CLR,0.00,WeatherDisplay:10.37,2013-04-22 09:23:00,
2013-04-22 04:28:00,32.5,26.7,30.19,WNW,292,1.1,3.5,79,0.00,CLR,CLR,0.00,WeatherDisplay:10.37,2013-04-22 09:28:00,
2013-04-22 04:33:00,32.4,26.6,30.19,WNW,292,1.4,3.5,79,0.00,CLR,CLR,0.00,WeatherDisplay:10.37,2013-04-22 09:33:00,
2013-04-22 04:38:00,32.5,26.7,30.18,WNW,292,1.7,3.5,79,0.00,CLR,CLR,0.00,WeatherDisplay:10.37,2013-04-22 09:38:00,
2013-04-22 04:43:00,32.5,26.7,30.18,West,270,1.3,3.5,79,0.00,CLR,CLR,0.00,WeatherDisplay:10.37,2013-04-22 09:43:00,
2013-04-22 04:48:00,32.5,26.7,30.19,West,270,0.5,1.2,79,0.00,CLR,CLR,0.00,WeatherDisplay:10.37,2013-04-22 09:48:00,
2013-04-22 04:53:00,32.5,26.7,30.19,WNW,292,0.0,1.2,79,0.00,CLR,CLR,0.00,WeatherDisplay:10.37,2013-04-22 09:53:00,
2013-04-22 04:58:00,32.4,26.6,30.19,WNW,292,0.1,2.9,79,0.00,CLR,CLR,0.00,WeatherDisplay:10.37,2013-04-22 09:58:00,
2013-04-22 05:04:00,32.4,26.9,30.19,WNW,292,1.9,2.3,80,0.00,CLR,CLR,0.00,WeatherDisplay:10.37,2013-04-22 10:04:00,
2013-04-22 05:09:00,32.4,26.9,30.19,WNW,292,3.2,4.6,80,0.00,CLR,CLR,0.00,WeatherDisplay:10.37,2013-04-22 10:09:00,
2013-04-22 05:14:00,32.4,26.9,30.20,NNW,338,2.6,3.5,80,0.00,CLR,CLR,0.00,WeatherDisplay:10.37,2013-04-22 10:14:00,
2013-04-22 05:19:00,32.5,27.1,30.18,NNW,338,4.9,5.8,80,0.00,CLR,CLR,0.00,WeatherDisplay:10.37,2013-04-22 10:19:00,
2013-04-22 05:24:00,32.5,27.1,30.18,NNW,338,6.0,6.9,80,0.00,CLR,CLR,0.00,WeatherDisplay:10.37,2013-04-22 10:24:00,
2013-04-22 05:30:00,32.5,27.1,30.18,North,0,5.8,10.7,80,0.00,CLR,CLR,0.00,WeatherDisplay:10.37,2013-04-22 10:30:00,
2013-04-22 05:35:00,32.4,26.9,30.18,NNW,338,7.9,9.2,80,0.00,CLR,CLR,0.00,WeatherDisplay:10.37,2013-04-22 10:35:00,
2013-04-22 05:40:00,32.2,26.7,30.18,North,0,6.8,10.4,80,0.00,CLR,CLR,0.00,WeatherDisplay:10.37,2013-04-22 10:40:00,
2013-04-22 05:45:00,32.2,26.7,30.19,NNW,338,4.5,5.6,80,0.00,CLR,CLR,0.00,WeatherDisplay:10.37,2013-04-22 10:45:00,
2013-04-22 05:51:00,31.8,26.4,30.19,NNW,338,3.8,4.6,80,0.00,CLR,CLR,0.00,WeatherDisplay:10.37,2013-04-22 10:51:00,
2013-04-22 05:56:00,31.6,26.2,30.20,NNW,338,1.9,3.5,80,0.00,CLR,CLR,0.00,WeatherDisplay:10.37,2013-04-22 10:56:00,
2013-04-22 06:01:00,31.6,26.2,30.20,NE,45,2.2,3.5,80,0.00,CLR,CLR,0.00,WeatherDisplay:10.37,2013-04-22 11:01:00,
2013-04-22 06:06:00,31.3,26.1,30.20,NNW,338,2.8,3.5,81,0.00,CLR,CLR,0.00,WeatherDisplay:10.37,2013-04-22 11:06:00,
2013-04-22 06:11:00,31.3,26.1,30.21,North,0,1.8,3.5,81,0.00,CLR,CLR,0.00,WeatherDisplay:10.37,2013-04-22 11:11:00,
2013-04-22 06:16:00,31.3,26.1,30.21,NNW,338,3.3,4.6,81,0.00,CLR,CLR,0.00,WeatherDisplay:10.37,2013-04-22 11:16:00,
2013-04-22 06:21:00,30.9,25.8,30.21,WNW,292,3.2,3.5,81,0.00,CLR,CLR,0.00,WeatherDisplay:10.37,2013-04-22 11:21:00,
2013-04-22 06:26:00,30.9,25.8,30.21,NNW,338,3.0,4.6,81,0.00,CLR,CLR,0.00,WeatherDisplay:10.37,2013-04-22 11:26:00,
2013-04-22 06:31:00,30.7,25.6,30.22,NW,315,2.9,3.5,81,0.00,CLR,CLR,0.00,WeatherDisplay:10.37,2013-04-22 11:31:00,
2013-04-22 06:36:00,30.7,25.6,30.22,NW,315,2.2,3.1,81,0.00,CLR,CLR,0.00,WeatherDisplay:10.37,2013-04-22 11:36:00,
2013-04-22 06:42:00,30.7,25.6,30.22,NNW,338,4.1,4.6,81,0.00,CLR,CLR,0.00,WeatherDisplay:10.37,2013-04-22 11:42:00,
2013-04-22 06:47:00,30.7,25.6,30.21,North,0,2.2,4.7,81,0.00,CLR,CLR,0.00,WeatherDisplay:10.37,2013-04-22 11:47:00,
2013-04-22 06:52:00,30.6,25.4,30.22,NNW,338,4.4,4.6,81,0.00,CLR,CLR,0.00,WeatherDisplay:10.37,2013-04-22 11:52:00,
2013-04-22 06:57:00,30.6,25.4,30.22,North,0,2.2,3.6,81,0.00,CLR,CLR,0.00,WeatherDisplay:10.37,2013-04-22 11:57:00,
2013-04-22 07:02:00,30.6,25.4,30.22,NNW,338,4.4,6.9,81,0.00,CLR,CLR,0.00,WeatherDisplay:10.37,2013-04-22 12:02:00,
2013-04-22 07:08:00,30.6,25.4,30.22,North,0,4.9,5.8,81,0.00,CLR,CLR,0.00,WeatherDisplay:10.37,2013-04-22 12:08:00,
2013-04-22 07:13:00,30.7,25.6,30.22,NNE,22,0.7,2.3,81,0.00,CLR,CLR,0.00,WeatherDisplay:10.37,2013-04-22 12:13:00,
2013-04-22 07:18:00,31.1,26.0,30.21,NNE,22,2.3,3.5,81,0.00,CLR,CLR,0.00,WeatherDisplay:10.37,2013-04-22 12:18:00,
2013-04-22 07:23:00,31.6,26.5,30.21,North,0,1.8,3.5,81,0.00,CLR,CLR,0.00,WeatherDisplay:10.37,2013-04-22 12:23:00,
2013-04-22 07:28:00,31.8,26.7,30.21,North,0,2.9,3.5,81,0.00,CLR,CLR,0.00,WeatherDisplay:10.37,2013-04-22 12:28:00,
2013-04-22 07:33:00,32.4,27.2,30.21,NNW,338,6.2,8.1,81,0.00,CLR,CLR,0.00,WeatherDisplay:10.37,2013-04-22 12:33:00,
2013-04-22 07:39:00,32.7,27.2,30.20,NNW,338,6.4,7.6,80,0.00,CLR,CLR,0.00,WeatherDisplay:10.37,2013-04-22 12:39:00,
2013-04-22 07:44:00,32.9,27.4,30.20,NW,315,8.6,11.5,80,0.00,CLR,CLR,0.00,WeatherDisplay:10.37,2013-04-22 12:44:00,
2013-04-22 07:49:00,33.4,27.6,30.20,North,0,6.4,6.9,79,0.00,CLR,CLR,0.00,WeatherDisplay:10.37,2013-04-22 12:49:00,
2013-04-22 07:54:00,33.6,27.5,30.19,NNW,338,9.4,10.4,78,0.00,CLR,CLR,0.00,WeatherDisplay:10.37,2013-04-22 12:54:00,
2013-04-22 07:59:00,33.8,27.4,30.19,North,0,10.2,12.7,77,0.00,CLR,CLR,0.00,WeatherDisplay:10.37,2013-04-22 12:59:00,
2013-04-22 08:04:00,34.0,27.5,30.18,North,0,7.1,10.4,77,0.00,CLR,CLR,0.00,WeatherDisplay:10.37,2013-04-22 13:04:00,
2013-04-22 08:10:00,33.8,27.0,30.18,North,0,8.8,12.7,76,0.00,CLR,CLR,0.00,WeatherDisplay:10.37,2013-04-22 13:10:00,
2013-04-22 08:15:00,33.6,26.9,30.19,NNW,338,6.0,8.1,76,0.00,CLR,CLR,0.00,WeatherDisplay:10.37,2013-04-22 13:15:00,
2013-04-22 08:20:00,33.8,27.0,30.19,North,0,6.6,9.2,76,0.00,CLR,CLR,0.00,WeatherDisplay:10.37,2013-04-22 13:20:00,
2013-04-22 08:25:00,33.6,26.9,30.19,NNW,338,6.5,8.1,76,0.00,CLR,CLR,0.00,WeatherDisplay:10.37,2013-04-22 13:25:00,
2013-04-22 08:30:00,34.0,27.2,30.19,NW,315,5.3,5.8,76,0.00,CLR,CLR,0.00,WeatherDisplay:10.37,2013-04-22 13:30:00,
2013-04-22 08:35:00,34.2,27.4,30.20,North,0,5.9,6.5,76,0.00,CLR,CLR,0.00,WeatherDisplay:10.37,2013-04-22 13:35:00,
2013-04-22 08:41:00,34.3,27.6,30.20,WNW,292,5.0,6.9,76,0.00,CLR,CLR,0.00,WeatherDisplay:10.37,2013-04-22 13:41:00,
2013-04-22 08:46:00,34.7,27.6,30.21,North,0,7.7,10.4,75,0.00,CLR,CLR,0.00,WeatherDisplay:10.37,2013-04-22 13:46:00,
2013-04-22 08:51:00,34.9,27.8,30.20,North,0,5.6,9.2,75,0.00,CLR,CLR,0.00,WeatherDisplay:10.37,2013-04-22 13:51:00,
2013-04-22 08:56:00,35.4,28.3,30.20,North,0,7.3,11.5,75,0.00,CLR,CLR,0.00,WeatherDisplay:10.37,2013-04-22 13:56:00,
2013-04-22 09:01:00,36.0,28.5,30.20,NNW,338,7.1,12.7,74,0.00,CLR,CLR,0.00,WeatherDisplay:10.37,2013-04-22 14:01:00,
2013-04-22 09:06:00,36.0,28.1,30.21,NW,315,7.1,10.4,73,0.00,CLR,CLR,0.00,WeatherDisplay:10.37,2013-04-22 14:06:00,
2013-04-22 09:11:00,36.3,28.5,30.22,NNE,22,8.8,10.4,73,0.00,CLR,CLR,0.00,WeatherDisplay:10.37,2013-04-22 14:11:00,
2013-04-22 09:17:00,36.3,28.2,30.21,North,0,8.3,10.5,72,0.00,CLR,CLR,0.00,WeatherDisplay:10.37,2013-04-22 14:17:00,
2013-04-22 09:22:00,36.1,28.0,30.21,NNW,338,8.1,11.5,72,0.00,CLR,CLR,0.00,WeatherDisplay:10.37,2013-04-22 14:22:00,
2013-04-22 09:27:00,36.1,28.0,30.21,NNE,22,6.0,8.1,72,0.00,CLR,CLR,0.00,WeatherDisplay:10.37,2013-04-22 14:27:00,
2013-04-22 09:32:00,36.3,28.2,30.21,North,0,9.4,10.4,72,0.00,CLR,CLR,0.00,WeatherDisplay:10.37,2013-04-22 14:32:00,
2013-04-22 09:37:00,36.7,28.5,30.21,North,0,6.8,11.5,72,0.00,CLR,CLR,0.00,WeatherDisplay:10.37,2013-04-22 14:37:00,
2013-04-22 09:42:00,37.2,28.7,30.20,North,0,9.0,12.7,71,0.00,CLR,CLR,0.00,WeatherDisplay:10.37,2013-04-22 14:42:00,
2013-04-22 09:47:00,37.6,29.0,30.20,NE,45,8.8,11.5,71,0.00,CLR,CLR,0.00,WeatherDisplay:10.37,2013-04-22 14:47:00,
2013-04-22 09:53:00,37.8,29.2,30.21,North,0,7.0,10.4,71,0.00,CLR,CLR,0.00,WeatherDisplay:10.37,2013-04-22 14:53:00,
2013-04-22 09:58:00,37.9,29.0,30.21,North,0,6.9,10.4,70,0.00,CLR,CLR,0.00,WeatherDisplay:10.37,2013-04-22 14:58:00,
2013-04-22 10:03:00,38.1,29.2,30.22,NW,315,6.5,9.2,70,0.00,CLR,CLR,0.00,WeatherDisplay:10.37,2013-04-22 15:03:00,
2013-04-22 10:08:00,38.5,29.2,30.21,NNE,22,7.3,11.5,69,0.00,CLR,CLR,0.00,WeatherDisplay:10.37,2013-04-22 15:08:00,
2013-04-22 10:13:00,38.8,29.5,30.21,NNE,22,8.3,8.3,69,0.00,CLR,CLR,0.00,WeatherDisplay:10.37,2013-04-22 15:13:00,
2013-04-22 10:19:00,38.8,29.2,30.21,NNE,22,9.7,11.5,68,0.00,CLR,CLR,0.00,WeatherDisplay:10.37,2013-04-22 15:19:00,
2013-04-22 10:24:00,38.3,29.0,30.22,North,0,8.1,10.4,69,0.00,CLR,CLR,0.00,WeatherDisplay:10.37,2013-04-22 15:24:00,
2013-04-22 10:29:00,38.1,28.8,30.23,North,0,10.7,11.5,69,0.00,CLR,CLR,0.00,WeatherDisplay:10.37,2013-04-22 15:29:00,
2013-04-22 10:34:00,37.9,28.7,30.22,NNW,338,6.3,9.2,69,0.00,CLR,CLR,0.00,WeatherDisplay:10.37,2013-04-22 15:34:00,
2013-04-22 10:39:00,38.3,29.0,30.22,North,0,5.1,8.1,69,0.00,CLR,CLR,0.00,WeatherDisplay:10.37,2013-04-22 15:39:00,
2013-04-22 10:44:00,38.5,29.2,30.23,NW,315,5.7,9.2,69,0.00,CLR,CLR,0.00,WeatherDisplay:10.37,2013-04-22 15:44:00,
2013-04-22 10:50:00,38.5,29.2,30.23,NNW,338,6.0,8.3,69,0.00,CLR,CLR,0.00,WeatherDisplay:10.37,2013-04-22 15:50:00,
2013-04-22 10:55:00,38.5,29.2,30.24,NNW,338,5.7,6.9,69,0.00,CLR,CLR,0.00,WeatherDisplay:10.37,2013-04-22 15:55:00,
2013-04-22 11:00:00,38.5,29.2,30.24,NW,315,4.1,6.9,69,0.00,CLR,CLR,0.00,WeatherDisplay:10.37,2013-04-22 16:00:00,
2013-04-22 11:05:00,39.0,29.7,30.24,NNW,338,4.8,10.5,69,0.00,CLR,CLR,0.00,WeatherDisplay:10.37,2013-04-22 16:05:00,
2013-04-22 11:10:00,39.4,30.1,30.25,NNW,338,3.9,6.9,69,0.00,CLR,CLR,0.00,WeatherDisplay:10.37,2013-04-22 16:10:00,
2013-04-22 11:16:00,39.7,30.0,30.25,NNW,338,7.4,8.3,68,0.00,CLR,CLR,0.00,WeatherDisplay:10.37,2013-04-22 16:16:00,
2013-04-22 11:21:00,39.7,29.7,30.25,NW,315,7.1,9.2,67,0.00,CLR,CLR,0.00,WeatherDisplay:10.37,2013-04-22 16:21:00,
2013-04-22 11:26:00,39.7,29.7,30.24,NNW,338,6.4,6.4,67,0.00,CLR,CLR,0.00,WeatherDisplay:10.37,2013-04-22 16:26:00,
2013-04-22 11:31:00,39.7,29.7,30.24,NNW,338,5.4,8.3,67,0.00,CLR,CLR,0.00,WeatherDisplay:10.37,2013-04-22 16:31:00,
2013-04-22 11:36:00,39.9,29.8,30.24,NW,315,8.5,10.4,67,0.00,CLR,CLR,0.00,WeatherDisplay:10.37,2013-04-22 16:36:00,
2013-04-22 11:41:00,39.9,29.8,30.23,NNE,22,7.8,8.1,67,0.00,CLR,CLR,0.00,WeatherDisplay:10.37,2013-04-22 16:41:00,
2013-04-22 11:47:00,40.1,30.0,30.23,North,0,7.9,11.5,67,0.00,CLR,CLR,0.00,WeatherDisplay:10.37,2013-04-22 16:47:00,
2013-04-22 11:52:00,40.3,30.2,30.23,NNW,338,9.7,11.5,67,0.00,CLR,CLR,0.00,WeatherDisplay:10.37,2013-04-22 16:52:00,
2013-04-22 11:57:00,40.8,30.7,30.23,NW,315,5.9,8.5,67,0.00,CLR,CLR,0.00,WeatherDisplay:10.37,2013-04-22 16:57:00,
2013-04-22 12:02:00,41.5,30.6,30.22,NNE,22,9.4,11.5,65,0.00,CLR,CLR,0.00,WeatherDisplay:10.37,2013-04-22 17:02:00,
2013-04-22 12:07:00,41.7,30.8,30.22,North,0,3.7,9.2,65,0.00,CLR,CLR,0.00,WeatherDisplay:10.37,2013-04-22 17:07:00,
2013-04-22 12:12:00,42.1,30.8,30.21,North,0,11.9,12.7,64,0.00,CLR,CLR,0.00,WeatherDisplay:10.37,2013-04-22 17:12:00,
2013-04-22 12:18:00,42.1,30.4,30.21,North,0,11.5,16.1,63,0.00,CLR,CLR,0.00,WeatherDisplay:10.37,2013-04-22 17:18:00,
2013-04-22 12:23:00,41.5,29.5,30.21,NW,315,10.0,15.0,62,0.00,CLR,CLR,0.00,WeatherDisplay:10.37,2013-04-22 17:23:00,
2013-04-22 12:28:00,40.8,29.2,30.21,NNW,338,9.8,13.6,63,0.00,CLR,CLR,0.00,WeatherDisplay:10.37,2013-04-22 17:28:00,
2013-04-22 12:33:00,40.5,28.8,30.20,WNW,292,9.1,12.7,63,0.00,CLR,CLR,0.00,WeatherDisplay:10.37,2013-04-22 17:33:00,
2013-04-22 12:39:00,40.3,28.7,30.21,North,0,9.2,12.7,63,0.00,CLR,CLR,0.00,WeatherDisplay:10.37,2013-04-22 17:39:00,
2013-04-22 12:44:00,40.6,29.0,30.21,NW,315,9.6,11.8,63,0.00,CLR,CLR,0.00,WeatherDisplay:10.37,2013-04-22 17:44:00,
2013-04-22 12:49:00,40.8,28.4,30.21,NNW,338,10.4,12.7,61,0.00,CLR,CLR,0.00,WeatherDisplay:10.37,2013-04-22 17:49:00,
2013-04-22 12:54:00,41.2,28.7,30.20,NNE,22,10.7,13.8,61,0.00,CLR,CLR,0.00,WeatherDisplay:10.37,2013-04-22 17:54:00,
2013-04-22 12:59:00,41.4,28.1,30.19,North,0,10.7,15.0,59,0.00,CLR,CLR,0.00,WeatherDisplay:10.37,2013-04-22 17:59:00,
2013-04-22 13:04:00,41.0,27.3,30.19,NNW,338,8.7,13.8,58,0.00,CLR,CLR,0.00,WeatherDisplay:10.37,2013-04-22 18:04:00,
2013-04-22 13:09:00,40.5,26.4,30.18,North,0,15.0,19.6,57,0.00,CLR,CLR,0.00,WeatherDisplay:10.37,2013-04-22 18:09:00,
2013-04-22 13:15:00,39.7,25.7,30.17,NNW,338,12.7,15.0,57,0.00,CLR,CLR,0.00,WeatherDisplay:10.37,2013-04-22 18:15:00,
2013-04-22 13:20:00,39.4,25.8,30.16,NNW,338,16.8,18.4,58,0.00,CLR,CLR,0.00,WeatherDisplay:10.37,2013-04-22 18:20:00,
2013-04-22 13:25:00,39.0,25.5,30.16,NNW,338,15.3,20.7,58,0.00,CLR,CLR,0.00,WeatherDisplay:10.37,2013-04-22 18:25:00,
2013-04-22 13:30:00,39.0,25.5,30.16,NNE,22,12.8,18.4,58,0.00,CLR,CLR,0.00,WeatherDisplay:10.37,2013-04-22 18:30:00,
2013-04-22 13:35:00,39.0,25.9,30.16,NNW,338,12.6,17.3,59,0.00,CLR,CLR,0.00,WeatherDisplay:10.37,2013-04-22 18:35:00,
2013-04-22 13:40:00,39.0,25.5,30.16,NW,315,10.7,13.8,58,0.00,CLR,CLR,0.00,WeatherDisplay:10.37,2013-04-22 18:40:00,
2013-04-22 13:45:00,39.0,25.5,30.17,NW,315,14.4,21.9,58,0.00,CLR,CLR,0.00,WeatherDisplay:10.37,2013-04-22 18:45:00,
2013-04-22 13:50:00,39.0,25.5,30.18,North,0,7.8,11.5,58,0.00,CLR,CLR,0.00,WeatherDisplay:10.37,2013-04-22 18:50:00,
2013-04-22 13:55:00,38.8,25.3,30.19,North,0,10.8,13.8,58,0.00,CLR,CLR,0.00,WeatherDisplay:10.37,2013-04-22 18:55:00,
2013-04-22 14:01:00,38.7,25.6,30.19,NNW,338,8.7,10.4,59,0.00,CLR,CLR,0.00,WeatherDisplay:10.37,2013-04-22 19:01:00,
2013-04-22 14:06:00,38.5,25.4,30.20,NW,315,7.8,12.7,59,0.00,CLR,CLR,0.00,WeatherDisplay:10.37,2013-04-22 19:06:00,
2013-04-22 14:11:00,38.5,25.0,30.21,NNE,22,8.7,15.0,58,0.00,CLR,CLR,0.00,WeatherDisplay:10.37,2013-04-22 19:11:00,
2013-04-22 14:16:00,38.5,25.4,30.21,NNW,338,5.4,6.9,59,0.00,CLR,CLR,0.00,WeatherDisplay:10.37,2013-04-22 19:16:00,
2013-04-22 14:21:00,38.8,25.3,30.22,North,0,4.7,8.1,58,0.00,CLR,CLR,0.00,WeatherDisplay:10.37,2013-04-22 19:21:00,
2013-04-22 14:26:00,38.8,24.9,30.21,NW,315,7.6,12.7,57,0.00,CLR,CLR,0.00,WeatherDisplay:10.37,2013-04-22 19:26:00,
2013-04-22 14:31:00,38.8,24.9,30.21,North,0,8.2,11.5,57,0.00,CLR,CLR,0.00,WeatherDisplay:10.37,2013-04-22 19:31:00,
2013-04-22 14:37:00,38.8,24.9,30.21,NNW,338,6.6,8.1,57,0.00,CLR,CLR,0.00,WeatherDisplay:10.37,2013-04-22 19:37:00,
2013-04-22 14:42:00,38.8,25.3,30.21,NNW,338,12.9,17.3,58,0.00,CLR,CLR,0.00,WeatherDisplay:10.37,2013-04-22 19:42:00,
2013-04-22 14:47:00,38.5,25.8,30.21,NNW,338,14.6,19.6,60,0.00,CLR,CLR,0.00,WeatherDisplay:10.37,2013-04-22 19:47:00,
2013-04-22 14:52:00,37.8,26.3,30.21,NNW,338,12.5,15.0,63,0.00,CLR,CLR,0.00,WeatherDisplay:10.37,2013-04-22 19:52:00,
2013-04-22 14:57:00,36.9,26.6,30.21,NNW,338,13.5,17.3,66,0.00,CLR,CLR,0.00,WeatherDisplay:10.37,2013-04-22 19:57:00,
2013-04-22 15:02:00,36.3,26.8,30.21,North,0,8.3,10.4,68,0.00,CLR,CLR,0.00,WeatherDisplay:10.37,2013-04-22 20:02:00,
2013-04-22 15:08:00,36.1,27.3,30.20,NNW,338,10.9,12.7,70,0.00,CLR,CLR,0.00,WeatherDisplay:10.37,2013-04-22 20:08:00,
2013-04-22 15:13:00,35.8,27.6,30.20,NNW,338,10.5,12.7,72,0.00,CLR,CLR,0.00,WeatherDisplay:10.37,2013-04-22 20:13:00,
2013-04-22 15:18:00,35.4,27.6,30.19,NNW,338,13.0,17.3,73,0.00,CLR,CLR,0.00,WeatherDisplay:10.37,2013-04-22 20:18:00,
2013-04-22 15:23:00,34.9,27.4,30.19,North,0,9.8,13.8,74,0.00,CLR,CLR,0.00,WeatherDisplay:10.37,2013-04-22 20:23:00,
2013-04-22 15:28:00,34.5,27.7,30.18,NNW,338,12.2,19.6,76,0.00,CLR,CLR,0.00,WeatherDisplay:10.37,2013-04-22 20:28:00,
2013-04-22 15:33:00,34.3,27.9,30.18,NNE,22,8.8,12.7,77,0.00,CLR,CLR,0.00,WeatherDisplay:10.37,2013-04-22 20:33:00,
2013-04-22 15:38:00,34.2,28.0,30.18,NW,315,12.5,15.0,78,0.00,CLR,CLR,0.00,WeatherDisplay:10.37,2013-04-22 20:38:00,
2013-04-22 15:44:00,34.0,28.2,30.18,North,0,8.4,11.5,79,0.00,CLR,CLR,0.00,WeatherDisplay:10.37,2013-04-22 20:44:00,
2013-04-22 15:49:00,33.6,27.8,30.18,NNW,338,7.1,13.8,79,0.00,CLR,CLR,0.00,WeatherDisplay:10.37,2013-04-22 20:49:00,
2013-04-22 15:54:00,33.6,28.1,30.18,NNW,338,10.6,12.7,80,0.00,CLR,CLR,0.00,WeatherDisplay:10.37,2013-04-22 20:54:00,
2013-04-22 15:59:00,33.6,28.1,30.18,NNE,22,9.5,10.9,80,0.00,CLR,CLR,0.00,WeatherDisplay:10.37,2013-04-22 20:59:00,
2013-04-22 16:04:00,33.6,28.1,30.18,North,0,6.6,10.4,80,0.00,CLR,CLR,0.00,WeatherDisplay:10.37,2013-04-22 21:04:00,
2013-04-22 16:09:00,33.4,28.2,30.18,NNW,338,9.2,10.4,81,0.00,CLR,CLR,0.00,WeatherDisplay:10.37,2013-04-22 21:09:00,
2013-04-22 16:14:00,33.4,28.2,30.18,NNW,338,8.5,11.8,81,0.00,CLR,CLR,0.00,WeatherDisplay:10.37,2013-04-22 21:14:00,
2013-04-22 16:19:00,33.3,28.4,30.18,NNW,338,9.5,13.6,82,0.00,CLR,CLR,0.00,WeatherDisplay:10.37,2013-04-22 21:19:00,
2013-04-22 16:24:00,32.9,28.0,30.18,North,0,6.5,9.2,82,0.00,CLR,CLR,0.00,WeatherDisplay:10.37,2013-04-22 21:24:00,
2013-04-22 16:29:00,32.7,27.8,30.18,North,0,9.9,11.4,82,0.00,CLR,CLR,0.00,WeatherDisplay:10.37,2013-04-22 21:29:00,
2013-04-22 16:35:00,32.7,28.1,30.19,North,0,8.1,9.2,83,0.00,CLR,CLR,0.00,WeatherDisplay:10.37,2013-04-22 21:35:00,
2013-04-22 16:40:00,32.5,28.2,30.18,NW,315,10.2,11.5,84,0.00,CLR,CLR,0.00,WeatherDisplay:10.37,2013-04-22 21:40:00,
2013-04-22 16:45:00,32.2,27.9,30.18,NNW,338,9.1,11.5,84,0.00,CLR,CLR,0.00,WeatherDisplay:10.37,2013-04-22 21:45:00,
2013-04-22 16:50:00,32.2,27.9,30.18,North,0,9.5,14.3,84,0.00,CLR,CLR,0.00,WeatherDisplay:10.37,2013-04-22 21:50:00,
2013-04-22 16:55:00,31.8,27.8,30.18,NNW,338,9.2,11.5,85,0.00,CLR,CLR,0.00,WeatherDisplay:10.37,2013-04-22 21:55:00,
2013-04-22 17:00:00,31.8,27.8,30.18,NW,315,9.2,11.5,85,0.00,CLR,CLR,0.00,WeatherDisplay:10.37,2013-04-22 22:00:00,
2013-04-22 17:05:00,31.8,27.8,30.18,North,0,9.7,13.8,85,0.00,CLR,CLR,0.00,WeatherDisplay:10.37,2013-04-22 22:05:00,
2013-04-22 17:11:00,31.8,28.1,30.18,NNW,338,10.2,12.7,86,0.00,CLR,CLR,0.00,WeatherDisplay:10.37,2013-04-22 22:11:00,
2013-04-22 17:16:00,31.6,27.9,30.18,North,0,9.5,11.5,86,0.00,CLR,CLR,0.00,WeatherDisplay:10.37,2013-04-22 22:16:00,
2013-04-22 17:21:00,31.6,27.9,30.18,North,0,9.0,12.7,86,0.00,CLR,CLR,0.00,WeatherDisplay:10.37,2013-04-22 22:21:00,
2013-04-22 17:26:00,31.8,28.1,30.18,NW,315,8.5,12.7,86,0.00,CLR,CLR,0.00,WeatherDisplay:10.37,2013-04-22 22:26:00,
2013-04-22 17:31:00,31.6,27.9,30.18,NNW,338,8.6,12.7,86,0.00,CLR,CLR,0.00,WeatherDisplay:10.37,2013-04-22 22:31:00,
2013-04-22 17:36:00,31.6,28.2,30.18,NW,315,9.1,11.5,87,0.00,CLR,CLR,0.00,WeatherDisplay:10.37,2013-04-22 22:36:00,
2013-04-22 17:42:00,31.6,28.2,30.19,NW,315,9.6,12.7,87,0.00,CLR,CLR,0.00,WeatherDisplay:10.37,2013-04-22 22:42:00,
2013-04-22 17:47:00,31.6,28.2,30.18,WNW,292,9.8,13.0,87,0.00,CLR,CLR,0.00,WeatherDisplay:10.37,2013-04-22 22:47:00,
2013-04-22 17:52:00,31.6,28.2,30.19,NNW,338,9.2,10.4,87,0.00,CLR,CLR,0.00,WeatherDisplay:10.37,2013-04-22 22:52:00,
2013-04-22 17:57:00,31.6,28.2,30.19,NNW,338,7.4,9.2,87,0.00,CLR,CLR,0.00,WeatherDisplay:10.37,2013-04-22 22:57:00,
2013-04-22 18:02:00,31.6,28.2,30.19,NNW,338,9.4,12.7,87,0.00,CLR,CLR,0.00,WeatherDisplay:10.37,2013-04-22 23:02:00,
2013-04-22 18:07:00,31.6,28.2,30.19,NNW,338,10.1,10.1,87,0.00,CLR,CLR,0.00,WeatherDisplay:10.37,2013-04-22 23:07:00,
2013-04-22 18:13:00,31.6,28.2,30.19,NNW,338,9.9,13.8,87,0.00,CLR,CLR,0.00,WeatherDisplay:10.37,2013-04-22 23:13:00,
2013-04-22 18:18:00,31.6,28.2,30.19,NNW,338,9.8,12.7,87,0.00,CLR,CLR,0.00,WeatherDisplay:10.37,2013-04-22 23:18:00,
2013-04-22 18:23:00,31.6,28.2,30.18,NW,315,8.4,10.4,87,0.00,CLR,CLR,0.00,WeatherDisplay:10.37,2013-04-22 23:23:00,
2013-04-22 18:28:00,31.6,28.2,30.19,North,0,8.5,11.5,87,0.00,CLR,CLR,0.00,WeatherDisplay:10.37,2013-04-22 23:28:00,
2013-04-22 18:33:00,31.6,28.2,30.19,NNW,338,8.6,11.5,87,0.00,CLR,CLR,0.00,WeatherDisplay:10.37,2013-04-22 23:33:00,
2013-04-22 18:38:00,31.5,28.0,30.18,NNW,338,9.7,12.7,87,0.00,CLR,CLR,0.00,WeatherDisplay:10.37,2013-04-22 23:38:00,
2013-04-22 18:43:00,31.3,27.9,30.18,NNW,338,8.1,9.2,87,0.00,CLR,CLR,0.00,WeatherDisplay:10.37,2013-04-22 23:43:00,
2013-04-22 18:49:00,31.5,28.0,30.19,NNW,338,7.2,10.4,87,0.00,CLR,CLR,0.00,WeatherDisplay:10.37,2013-04-22 23:49:00,
2013-04-22 18:54:00,31.5,28.0,30.19,NNW,338,7.7,11.5,87,0.00,CLR,CLR,0.00,WeatherDisplay:10.37,2013-04-22 23:54:00,
2013-04-22 18:59:00,31.5,28.0,30.19,NW,315,7.7,9.2,87,0.00,CLR,CLR,0.00,WeatherDisplay:10.37,2013-04-22 23:59:00,
2013-04-22 19:04:00,31.3,27.9,30.19,North,0,10.2,15.0,87,0.00,CLR,CLR,0.00,WeatherDisplay:10.37,2013-04-23 00:04:00,
2013-04-22 19:09:00,31.3,27.9,30.19,NW,315,7.9,11.5,87,0.00,CLR,CLR,0.00,WeatherDisplay:10.37,2013-04-23 00:09:00,
2013-04-22 19:14:00,31.3,27.9,30.20,North,0,10.0,11.5,87,0.00,CLR,CLR,0.00,WeatherDisplay:10.37,2013-04-23 00:14:00,
2013-04-22 19:19:00,31.3,27.9,30.20,NNW,338,5.9,6.9,87,0.00,CLR,CLR,0.00,WeatherDisplay:10.37,2013-04-23 00:19:00,
2013-04-22 19:25:00,31.3,28.1,30.20,NW,315,6.1,9.2,88,0.00,CLR,CLR,0.00,WeatherDisplay:10.37,2013-04-23 00:25:00,
2013-04-22 19:30:00,31.3,28.1,30.20,NW,315,5.9,6.9,88,0.00,CLR,CLR,0.00,WeatherDisplay:10.37,2013-04-23 00:30:00,
2013-04-22 19:35:00,31.3,28.1,30.20,NNW,338,5.3,8.1,88,0.00,CLR,CLR,0.00,WeatherDisplay:10.37,2013-04-23 00:35:00,
2013-04-22 19:41:00,31.1,28.0,30.20,North,0,7.2,9.2,88,0.00,CLR,CLR,0.00,WeatherDisplay:10.37,2013-04-23 00:41:00,
2013-04-22 19:46:00,31.1,28.0,30.20,NNW,338,7.7,10.4,88,0.00,CLR,CLR,0.00,WeatherDisplay:10.37,2013-04-23 00:46:00,
2013-04-22 19:51:00,30.9,27.8,30.20,NNW,338,7.8,12.7,88,0.00,CLR,CLR,0.00,WeatherDisplay:10.37,2013-04-23 00:51:00,
2013-04-22 19:56:00,30.9,27.8,30.20,NW,315,9.3,12.7,88,0.00,CLR,CLR,0.00,WeatherDisplay:10.37,2013-04-23 00:56:00,
2013-04-22 20:01:00,30.9,27.8,30.20,North,0,9.5,15.0,88,0.00,CLR,CLR,0.00,WeatherDisplay:10.37,2013-04-23 01:01:00,
2013-04-22 20:06:00,30.7,27.6,30.19,North,0,9.0,12.7,88,0.00,CLR,CLR,0.00,WeatherDisplay:10.37,2013-04-23 01:06:00,
2013-04-22 20:11:00,30.7,27.6,30.19,North,0,9.7,10.4,88,0.00,CLR,CLR,0.00,WeatherDisplay:10.37,2013-04-23 01:11:00,
2013-04-22 20:16:00,30.7,27.6,30.19,NW,315,10.8,11.5,88,0.00,CLR,CLR,0.00,WeatherDisplay:10.37,2013-04-23 01:16:00,
2013-04-22 20:21:00,30.7,27.6,30.18,North,0,10.5,12.7,88,0.00,CLR,CLR,0.00,WeatherDisplay:10.37,2013-04-23 01:21:00,
2013-04-22 20:26:00,30.7,27.6,30.18,NNW,338,9.9,12.7,88,0.00,CLR,CLR,0.00,WeatherDisplay:10.37,2013-04-23 01:26:00,
2013-04-22 20:31:00,30.6,27.7,30.19,NNW,338,9.5,10.4,89,0.00,CLR,CLR,0.00,WeatherDisplay:10.37,2013-04-23 01:31:00,
2013-04-22 20:37:00,30.6,27.7,30.19,NNW,338,8.8,13.8,89,0.00,CLR,CLR,0.00,WeatherDisplay:10.37,2013-04-23 01:37:00,
2013-04-22 20:42:00,30.6,27.7,30.19,WNW,292,11.7,13.8,89,0.00,CLR,CLR,0.00,WeatherDisplay:10.37,2013-04-23 01:42:00,
2013-04-22 20:47:00,30.6,27.7,30.19,NNW,338,8.9,11.5,89,0.00,CLR,CLR,0.00,WeatherDisplay:10.37,2013-04-23 01:47:00,
2013-04-22 20:52:00,30.4,27.5,30.19,NNW,338,9.7,12.7,89,0.00,CLR,CLR,0.00,WeatherDisplay:10.37,2013-04-23 01:52:00,
2013-04-22 20:57:00,30.4,27.5,30.19,NW,315,6.7,9.2,89,0.00,CLR,CLR,0.00,WeatherDisplay:10.37,2013-04-23 01:57:00,
2013-04-22 21:02:00,30.6,27.7,30.19,North,0,9.4,11.5,89,0.00,CLR,CLR,0.00,WeatherDisplay:10.37,2013-04-23 02:02:00,
2013-04-22 21:08:00,30.6,27.7,30.19,WNW,292,7.6,11.5,89,0.00,CLR,CLR,0.00,WeatherDisplay:10.37,2013-04-23 02:08:00,
2013-04-22 21:13:00,30.6,27.7,30.19,North,0,8.2,10.4,89,0.00,CLR,CLR,0.00,WeatherDisplay:10.37,2013-04-23 02:13:00,
2013-04-22 21:18:00,30.6,27.7,30.19,NW,315,12.1,15.0,89,0.00,CLR,CLR,0.00,WeatherDisplay:10.37,2013-04-23 02:18:00,
2013-04-22 21:23:00,30.6,27.7,30.19,NNW,338,11.5,15.0,89,0.00,CLR,CLR,0.00,WeatherDisplay:10.37,2013-04-23 02:23:00,
2013-04-22 21:29:00,30.6,27.7,30.19,WNW,292,9.8,13.8,89,0.00,CLR,CLR,0.00,WeatherDisplay:10.37,2013-04-23 02:29:00,
2013-04-22 21:34:00,30.6,28.0,30.19,North,0,8.9,13.8,90,0.00,CLR,CLR,0.00,WeatherDisplay:10.37,2013-04-23 02:34:00,
2013-04-22 21:39:00,30.6,28.0,30.19,WNW,292,10.3,11.5,90,0.00,CLR,CLR,0.00,WeatherDisplay:10.37,2013-04-23 02:39:00,
2013-04-22 21:44:00,30.6,28.0,30.20,North,0,9.4,12.7,90,0.00,CLR,CLR,0.00,WeatherDisplay:10.37,2013-04-23 02:44:00,
2013-04-22 21:50:00,30.7,28.2,30.20,NW,315,7.5,10.4,90,0.00,CLR,CLR,0.00,WeatherDisplay:10.37,2013-04-23 02:50:00,
2013-04-22 21:55:00,30.6,27.7,30.21,North,0,9.6,10.4,89,0.00,CLR,CLR,0.00,WeatherDisplay:10.37,2013-04-23 02:55:00,
2013-04-22 22:00:00,30.6,27.7,30.20,North,0,9.3,11.5,89,0.00,CLR,CLR,0.00,WeatherDisplay:10.37,2013-04-23 03:00:00,
2013-04-22 22:05:00,30.7,27.9,30.21,WNW,292,7.7,11.5,89,0.00,CLR,CLR,0.00,WeatherDisplay:10.37,2013-04-23 03:05:00,
2013-04-22 22:10:00,30.7,27.9,30.21,NNW,338,9.8,9.8,89,0.00,CLR,CLR,0.00,WeatherDisplay:10.37,2013-04-23 03:10:00,
2013-04-22 22:16:00,30.7,27.9,30.21,NNW,338,8.2,10.4,89,0.00,CLR,CLR,0.00,WeatherDisplay:10.37,2013-04-23 03:16:00,
2013-04-22 22:21:00,30.7,27.6,30.21,North,0,5.9,8.1,88,0.00,CLR,CLR,0.00,WeatherDisplay:10.37,2013-04-23 03:21:00,
2013-04-22 22:26:00,30.7,27.6,30.21,NW,315,7.9,9.2,88,0.00,CLR,CLR,0.00,WeatherDisplay:10.37,2013-04-23 03:26:00,
2013-04-22 22:31:00,30.6,27.4,30.20,WNW,292,6.7,10.4,88,0.00,CLR,CLR,0.00,WeatherDisplay:10.37,2013-04-23 03:31:00,
2013-04-22 22:37:00,30.6,27.4,30.21,NNW,338,3.2,6.9,88,0.00,CLR,CLR,0.00,WeatherDisplay:10.37,2013-04-23 03:37:00,
2013-04-22 22:42:00,30.6,27.7,30.20,North,0,6.3,8.1,89,0.00,CLR,CLR,0.00,WeatherDisplay:10.37,2013-04-23 03:42:00,
2013-04-22 22:47:00,30.6,27.7,30.20,NNW,338,6.6,9.2,89,0.00,CLR,CLR,0.00,WeatherDisplay:10.37,2013-04-23 03:47:00,
2013-04-22 22:52:00,30.6,27.7,30.20,NNW,338,5.4,7.4,89,0.00,CLR,CLR,0.00,WeatherDisplay:10.37,2013-04-23 03:52:00,
2013-04-22 22:57:00,30.6,27.7,30.20,NNW,338,6.3,9.2,89,0.00,CLR,CLR,0.00,WeatherDisplay:10.37,2013-04-23 03:57:00,
2013-04-22 23:01:00,30.6,27.7,30.20,NW,315,5.4,6.9,89,0.00,CLR,CLR,0.00,WeatherDisplay:10.37,2013-04-23 04:01:00,
2013-04-22 23:02:00,30.6,27.7,30.20,NW,315,4.6,5.8,89,0.00,CLR,CLR,0.00,WeatherDisplay:10.37,2013-04-23 04:02:00,
2013-04-22 23:03:00,30.6,27.7,30.20,NNW,338,3.8,6.9,89,0.00,CLR,CLR,0.00,WeatherDisplay:10.37,2013-04-23 04:03:00,
2013-04-22 23:04:00,30.6,27.7,30.20,North,0,3.2,4.9,89,0.00,CLR,CLR,0.00,WeatherDisplay:10.37,2013-04-23 04:04:00,
2013-04-22 23:09:00,30.6,27.7,30.19,WNW,292,3.8,8.1,89,0.00,CLR,CLR,0.00,WeatherDisplay:10.37,2013-04-23 04:09:00,
2013-04-22 23:14:00,30.6,27.7,30.19,North,0,3.1,4.6,89,0.00,CLR,CLR,0.00,WeatherDisplay:10.37,2013-04-23 04:14:00,
2013-04-22 23:20:00,30.4,27.5,30.20,NNW,338,2.0,3.5,89,0.00,CLR,CLR,0.00,WeatherDisplay:10.37,2013-04-23 04:20:00,
2013-04-22 23:25:00,30.4,27.5,30.19,North,0,1.4,3.5,89,0.00,CLR,CLR,0.00,WeatherDisplay:10.37,2013-04-23 04:25:00,
2013-04-22 23:30:00,30.4,27.5,30.19,NNW,338,4.0,6.9,89,0.00,CLR,CLR,0.00,WeatherDisplay:10.37,2013-04-23 04:30:00,
2013-04-22 23:35:00,30.4,27.5,30.19,NNW,338,3.0,4.6,89,0.00,CLR,CLR,0.00,WeatherDisplay:10.37,2013-04-23 04:35:00,
2013-04-22 23:40:00,30.4,27.5,30.19,NW,315,4.4,4.9,89,0.00,CLR,CLR,0.00,WeatherDisplay:10.37,2013-04-23 04:40:00,
2013-04-22 23:45:00,30.4,27.5,30.19,WNW,292,3.2,6.9,89,0.00,CLR,CLR,0.00,WeatherDisplay:10.37,2013-04-23 04:45:00,
2013-04-22 23:51:00,30.4,27.5,30.19,WNW,292,4.5,5.8,89,0.00,CLR,CLR,0.00,WeatherDisplay:10.37,2013-04-23 04:51:00,
2013-04-22 23:56:00,30.4,27.5,30.18,NW,315,3.9,5.8,89,0.00,CLR,CLR,0.00,WeatherDisplay:10.37,2013-04-23 04:56:00,